Location: Byszew
(52.1813°N, 19.2693°E)
Time: 01:57:45
(UTC+00:00)

Cosmos 2322 Rocket - Pass Details

Date: 26 June 2021
Orbit: 833 x 850 km, 71.0° (Epoch: 29 July)

Event Time Altitude Azimuth Distance (km) Brightness Sun altitude
Rises 00:50:25 0° 328° (NNW) 3,425 5.8 -9.7°
Reaches altitude 10° 00:53:30 10° 344° (NNW) 2,485 5.3 -9.5°
Maximum altitude 00:57:49 22° 33° (NNE) 1,797 5.1 -9.1°
Drops below altitude 10° 01:02:06 10° 83° (E) 2,469 5.2 -8.8°
Sets 01:05:08 0° 98° (E) 3,398 5.7 -8.6°
